Tracking 31027 objects as of 19-Jul-2025
HD Live streaming from Space Station
objects crossing your sky now

STARLINK-2648

Track STARLINK-2648 now!
10-day predictions
STARLINK-2648 is classified as:


NORAD ID: 48679
Int'l Code: 2021-044AT
Perigee: 553.5 km
Apogee: 555.2 km
Inclination: 53.1 °
Period: 95.6 minutes
Semi major axis: 6925 km
RCS: Unknown
Launch date: May 26, 2021
Source: United States (US)
Launch site: AIR FORCE EASTERN TEST RANGE (AFETR)
Your satellite tracking list
STARLINK-4010
Track 1 satellite(s)




NASA's NSSDC Master Catalog

Two Line Element Set (TLE):
1 48679U 21044AT  25199.39117205 -.00000245  00000-0  24373-5 0  9995
2 48679  53.0558  83.4272 0001223  85.7028 274.4101 15.06395751228537
Source of the keplerian elements: AFSPC